Location: B�hl
(48.6968°N, 8.1352°E)
Time: 08:44:43
(UTC+00:00)

CSL-04 Rocket - Pass Details

Date: 08 March 2021
Orbit: 805 x 861 km, 98.9° (Epoch: 13 April)

Event Time Altitude Azimuth Distance (km) Brightness Sun altitude
Rises 18:37:32 0° 167° (SSE) 3,420 6.6 -13.2°
Reaches altitude 10° 18:39:54 10° 169° (S) 2,484 5.9 -13.6°
Maximum altitude 18:45:26 77° 256° (WSW) 878 3.9 -14.5°
Drops below altitude 10° 18:50:56 10° 342° (NNW) 2,473 6.5 -15.4°
Sets 18:53:18 0° 344° (NNW) 3,404 7.2 -15.8°
